Location: Bratislava
(48.1500°N, 17.1170°E)
Time: 06:08:31
(UTC+02:00)

BlueWalker 3 - Pass Details

Date: 10 May 2026
Orbit: 447 x 456 km, 53.2° (Epoch: 10 June)

Event Time Altitude Azimuth Distance (km) Brightness Sun altitude
Exits shadow 03:06:46 47° 194° (SSW) 603 1.9 -17.3°
Maximum altitude 03:07:27 58° 147° (SSE) 527 1.8 -17.3°
Drops below altitude 10° 03:10:56 10° 68° (ENE) 1,577 5.3 -16.9°
Sets 03:13:05 0° 64° (ENE) 2,453 6.6 -16.7°
